Voltar ao catálogo

GOES 3

AtivoMeteoGEO
NORAD 10953·PAYLOAD·🇺🇸 United States

Lançado Jun 16, 1978 de Cape Canaveral Space Force Station

Loading…

TLE

AtualizadoSource: Space-Track

Época: Sep 14, 2026, 12:02 UTC

1 10953U 78062A   26257.50142086  .00000057  00000-0  00000-0 0  9991
2 10953   6.7070 298.7994 0002357 297.9084 179.4077  0.99358494129428

Acompanhe GOES 3 em tempo real com AllMySat

Download on the App Store